Location: Barcelona
(41.3830°N, 2.1830°E)
Time: 13:23:44
(UTC+01:00)

ISS - Pass Details

Date: 06 December 2019
Orbit: 411 x 421 km, 51.6° (Epoch: 11 December)

Event Time Altitude Azimuth Distance (km) Brightness Sun altitude
Rises 18:23:55 0° 309° (NW) 2,359 0.5 -11.4°
Reaches altitude 10° 18:26:19 10° 325° (NW) 1,496 -0.8 -11.8°
Maximum altitude 18:29:02 22° 19° (NNE) 961 -2.3 -12.3°
Enters shadow 18:30:03 19° 46° (NE) 1,053 -2.3 -12.5°
